Regional Weather Roundup
Issued by NWS Upton, NY

Current Version | Previous Version | Text Only | Print | Product List | Glossary Off
Versions: 1 2 3 4 5 6 7 8 9 10 11 12 13 14 15 16 17 18 19 20 21 22 23 24 25 26 27 28 29 30 31 32 33 34 35 36 37 38 39 40 41 42 43 44 45 46 47 48 49 50
648 ASUS41 KOKX 231105 RWROKX Regional Weather Roundup National Weather Service New York NY 600 AM EST SAT FEB 23 2019 Note: "FAIR" indicates few or no clouds below 12,000 feet with no significant weather and/or obstructions to visibility. NYZ071-072-176-178-NJZ106-104-231200- New York City Metro Area CITY SKY/WX TMP DP RH WIND PRES REMARKS Central Park FAIR 33 20 58 MISG 30.52R Bronx Lehman C N/A 32 21 64 N7 N/A WCI 26 LaGuardia Arpt MOCLDY 33 20 58 N9 30.50R WCI 25 Queens College N/A 32 25 74 N5 N/A WCI 27 Kennedy Intl MOCLDY 32 23 69 N7 30.50R WCI 26 Breezy Point N/A 32 N/A N/A NE7 N/A WCI 26 Brooklyn Coll N/A 34 23 64 N10 N/A WCI 26 Staten Island N/A 32 25 74 N3 N/A Newark/Liberty MOCLDY 32 23 69 N10 30.50R WCI 24 Teterboro FAIR 32 23 69 VRB6 30.50R WCI 26 $$ NYZ177-179-078>081-231200- Long Island New York CITY SKY/WX TMP DP RH WIND PRES REMARKS Jones Beach N/A 32 N/A N/A N7 N/A WCI 26 Wantagh N/A 32 25 74 N5 N/A WCI 27 Hempstead N/A 32 25 74 NE3 30.52R Matinecock Pt N/A 34 N/A N/A NE10 N/A WCI 26 Farmingdale FAIR 30 22 72 N7 30.49R WCI 23 MacArthur/ISP CLOUDY 30 23 75 N6 30.48 WCI 24 Stony Brook N/A 32 23 69 NE2 N/A Shirley FAIR 30 21 69 CALM 30.49R Mt Sinai Harb N/A N/A N/A N/A N9 N/A Westhampton FAIR 28 20 71 N5 30.49S WCI 23 East Hampton FAIR 26 22 84 CALM 30.48R Southold N/A 32 25 74 NE5 N/A WCI 27 Montauk N/A 33 24 69 MISG 30.49R $$ NYZ052-065-067-231200- Hudson Valley CITY SKY/WX TMP DP RH WIND PRES REMARKS White Plains FAIR 26 19 74 NW5 30.48R WCI 20 Larchmont Harb N/A N/A N/A N/A NW5 N/A Croton On Huds N/A N/A N/A N/A N2 N/A Somers N/A 28 21 74 N3 N/A Brewster N/A 27 21 80 NE2 N/A Newburgh PTCLDY 25 21 86 CALM 30.50R Montgomery FAIR 22 20 92 CALM 30.48R Otisville N/A 25 23 93 CALM N/A Warwick N/A 25 23 93 SE2 N/A Suffern N/A 30 21 69 NE3 N/A Poughkeepsie FLURRIES 24 19 81 CALM 30.50S Albany MOCLDY 20 14 77 NW5 30.52R WCI 13 $$ NJZ001-105-106-008-010-013-015-019>022-104-231200- New Jersey CITY SKY/WX TMP DP RH WIND PRES REMARKS Newark/Liberty MOCLDY 32 23 69 N10 30.50R WCI 24 Teterboro FAIR 32 23 69 VRB6 30.50R WCI 26 Caldwell FAIR 29 24 82 CALM 30.50R Somerville FAIR 27 25 92 CALM 30.48R Linden FAIR 33 22 62 CALM 30.50R Perth Amboy N/A 34 N/A N/A NE6 N/A WCI 29 Sussex FAIR 25 23 92 CALM 30.47F Andover N/A 26 22 84 CALM 30.47S Trenton FAIR 33 23 66 N5 30.48R WCI 29 Millville FAIR 34 24 67 NE7 30.46R WCI 28 Atlantic City FAIR 31 25 78 CALM 30.47R Wrightstown FAIR 30 23 77 NE3 30.45 Toms River FAIR 28 25 88 CALM 30.49R Belmar FAIR 32 25 75 NE5 30.48R WCI 27 $$ PAZ047>061-062-071-231200- Eastern Pennsylvania CITY SKY/WX TMP DP RH WIND PRES REMARKS Philadelphia CLOUDY 34 23 64 NE7 30.49R WCI 28 Allentown FAIR 30 22 72 CALM 30.47S Scranton FAIR 26 22 84 SE3 30.43F $$ CTZ002-004>006-009-010-012-RIZ004-006-007-MAZ004-011-015-231200- Southern New England In CT CITY SKY/WX TMP DP RH WIND PRES REMARKS Bradley Intl MOCLDY 26 18 71 CALM 30.51R Hartford FAIR 28 20 71 CALM 30.51R Danbury FAIR 25 19 78 CALM 30.49R Wtrbury/Oxford FAIR 27 20 75 N8 30.47R WCI 19 Norwalk Harbor N/A N/A N/A N/A N5 N/A Bridgeport FAIR 31 20 63 CALM 30.50R Meriden FAIR 25 22 88 CALM 30.50R New Haven MOCLDY 30 21 69 N6 30.49R WCI 24 Chester FAIR 28 19 69 N7 30.48R WCI 21 Groton FAIR 29 20 69 N5 30.49R WCI 24 Willimantic FAIR 24 20 84 CALM 30.51R In RI CITY SKY/WX TMP DP RH WIND PRES REMARKS Providence MOCLDY 29 20 69 N8 30.49R WCI 21 Block Island FAIR 33 22 63 NE6 30.49R WCI 28 Westerly FAIR 30 22 72 N5 30.50R WCI 25 In MA CITY SKY/WX TMP DP RH WIND PRES REMARKS Boston MOCLDY 30 18 60 NW9 30.50R WCI 22 Worcester FAIR 21 15 78 NW7 30.44R WCI 12 Westfield FAIR 20 17 88 CALM 30.50R Provincetown CLOUDY 34 24 67 NE8 30.48R WCI 27 Nantucket FAIR 32 26 78 NW6 30.46R WCI 26 $$ ANZ330-335-338-340-345-350-353-355-231200- Coastal Marine Observations STATION/POSITION TIME SKY/WX TEMP WIND PRES VSBY WAVE AIR SEA DIR/SP/G HT/PER (UTC) (F) (DEG/KT/KT) (MB) (MI) (FT/S) NY Harb Entrance 1050 35 40 40/ 12/ 16 1032.6 2/ 3 20 S Fire Island 1050 36 39 40/ 12/ 16 1031.8 2/ 3 Great South Bay NOT AVBL 23 SSW Montauk P 1050 36 41 30/ 12/ 14 1031.9 2/ 8 15 E Barnegat Li 1030 42 N/A 2/ 3 Hudson Canyon NOT AVBL Kings Point 1030 33 34 60/ 8/ 12 1033.6 Execution Rocks NOT AVBL Western LI Sound NOT AVBL Central LI Sound NOT AVBL Robbins Reef 1030 35 360/ 3/ 8 1032.9 $$ >>>>>>>>>>>>>>>>>>>>>>>>>>>> KEY <<<<<<<<<<<<<<<<<<<<<<<<<<< > < > SKY/WX - Sky Condition/Present Weather < > TMP - Temperature in Fahrenheit < > DP - Dew Point in Fahrenheit < > RH - Relative Humidity in Percent < > WIND - Direction (from) and Speed in MPH < > PRES - Mean Sea Level Pressure (inches of Hg) < > WCI - Wind Chill Index < > VSB - Visibility in Miles < > HX - Heat Index < > TC - Temperature in Celsius < > VRB - Variable Wind Direction < > < >>>>>>>>>>>>>>>>>>>>>>>>>>>> KEY <<<<<<<<<<<<<<<<<<<<<<<<<<<

USA.gov is the U.S. government's official web portal to all federal, state and local government web resources and services.